Regional Weather Roundup
Issued by NWS

Home | Current Version | Previous Version | Text Only | Print | Product List | Glossary On
Versions: 1 2 3 4 5 6 7 8 9 10 11 12 13 14 15 16 17 18 19 20 21 22 23 24 25 26 27 28 29 30 31 32 33 34 35 36 37 38 39 40 41 42 43 44 45 46 47 48 49 50
825
ASUS43 KMKX 300100
RWRWI

WISCONSIN REGIONAL WEATHER ROUNDUP
NATIONAL WEATHER SERVICE MILWAUKEE/SULLIVAN WI
800 PM CDT SUN MAY 29 2016

NOTE: "FAIR" INDICATES FEW OR NO CLOUDS BELOW 12,000 FEET WITH NO
SIGNIFICANT WEATHER AND/OR OBSTRUCTIONS TO VISIBILITY.

WIZ001-002-006>008-014>016-023>028-300200-
NORTHWEST WISCONSIN

CITY           SKY/WX    TMP DP  RH WIND       PRES   REMARKS
SUPERIOR ARPT  PTCLDY    70  53  55 NW12G17   29.90R
ASHLAND        CLEAR     68  53  58 VRB5      29.89R
HAYWARD        PTCLDY    70  54  56 VRB5      29.92R
SIREN          PTCLDY    72  52  50 W6        29.93R
CUMBERLAND     PTCLDY    68  54  60 NW7       29.93S
RICE LAKE      CLEAR     72  55  54 W7        29.94R
CHETEK         MOCLDY    71  57  60 W5        29.93R
LADYSMITH      CLEAR     71  55  57 W9        29.94R
EAU CLAIRE     NOT AVBL
MENOMONIE      CLEAR     74  55  50 W7        29.93S
NEW RICHMOND   PTCLDY    70  56  60 W6        29.94S
OSCEOLA        CLEAR     73  55  51 W7        29.96R
$$

WIZ003>005-009-010-017-018-300200-
NORTH CENTRAL WISCONSIN

CITY           SKY/WX    TMP DP  RH WIND       PRES   REMARKS
MANITOWISH WTR NOT AVBL
ARBOR VITAE    CLEAR     65  57  73 NW7       29.92R
WOODRUFF       CLEAR     65  57  73 NW7       29.92R
RHINELANDER    PTCLDY    66  54  65 W8        29.93R
EAGLE RIVER      N/A     63  54  72 NW6       29.91R
LAND O LAKES   CLOUDY    61  59  91 W5        29.92R
PHILLIPS       MOCLDY    67  56  67 W3        29.92R
TOMAHAWK       CLEAR     67  54  62 W6        29.92S
MEDFORD        CLEAR     68  56  64 W6        29.93S
MERRILL        CLEAR     70  55  60 W7        29.93R
$$

WIZ029-030-035-036-043>047-300200-
CENTRAL WISCONSIN

CITY           SKY/WX    TMP DP  RH WIND       PRES   REMARKS
WAUSAU         CLEAR     71  54  54 W13       29.91R
MOSINEE        CLEAR     70  55  60 W12       29.94
MARSHFIELD     CLEAR     70  55  59 W7        29.93S
STEVENS POINT  CLEAR     70  56  60 W10G16    29.93S
WAUPACA        CLEAR     76  55  48 W7G17     29.91S
WAUTOMA        CLEAR     74  56  53 W12       29.93R
WISC RAPIDS    CLEAR     72  52  49 NW7       29.94R
CAMP DOUGLAS   NOT AVBL
$$

WIZ011>013-019>022-031-037>040-048>050-300200-
NORTHEAST WISCONSIN

CITY           SKY/WX    TMP DP  RH WIND       PRES   REMARKS
ANTIGO         MOCLDY    67  57  68 CALM      29.92R
SHAWANO        PTCLDY    73  58  59 W6        29.89R
OCONTO         PTCLDY    72  60  66 W9        29.86S
STURGEON BAY   NOT AVBL
GREEN BAY      CLEAR     72  59  63 W7        29.90R
MANITOWOC      NOT AVBL
APPLETON       PTCLDY    72  55  56 W7        29.91R
CLINTONVILLE   CLEAR     72  54  53 W9        29.90R
OSHKOSH        CLEAR     73  56  54 W3        29.91R
$$

WIZ032>034-041-042-053>061-300200-
SOUTHWEST WISCONSIN

CITY           SKY/WX    TMP DP  RH WIND       PRES   REMARKS
LA CROSSE      PTCLDY    73  59  61 NW6       29.94S
SPARTA         PTCLDY    74  55  52 W7        29.95S
VIROQUA        CLOUDY    72  60  65 SW3       29.97R
BOSCOBEL       PTCLDY    76  61  59 SW7       29.95R
PRAIRIE DU CHI PTCLDY    75  56  51 W7        29.96R
PLATTEVILLE    CLEAR     75  61  63 W6        29.98S
$$

WIZ056-057-062-063-064-067-068-300200-
SOUTH CENTRAL WISCONSIN

CITY           SKY/WX    TMP DP  RH WIND       PRES   REMARKS
REEDSBURG      MOCLDY    73  59  62 W3        29.94S
BARABOO/DELLS  CLEAR     71  58  63 SW6       29.95S
LONE ROCK      NOT AVBL
MINERAL POINT  CLOUDY    73  57  56 W7        29.98S
MADISON        CLOUDY    71  57  61 SW3       29.96S
MIDDLETON      CLOUDY    70  58  65 CALM      29.97S
WATERTOWN      MOCLDY    73  58  60 W8        29.95S
MONROE         CLEAR     75  55  50 W13       29.98S
JANESVILLE     NOT AVBL
$$

WIZ051-052-058>065-066-070>072-300200-
SOUTHEAST WISCONSIN

CITY           SKY/WX    TMP DP  RH WIND       PRES   REMARKS
MILWAUKEE      PTCLDY    76  56  49 W8        29.94S
WAUKESHA       PTCLDY    72  55  56 W7        29.97R
MILWAUKEE/TIMM PTCLDY    75  52  43 MISG      29.95S
RACINE         CLEAR     75  56  51 W6        29.97R
BURLINGTON     CLEAR     72  55  54 W6        29.97S
KENOSHA        MOCLDY    73  58  59 W8        29.97R
FOND DU LAC    CLEAR     73  57  57 W6        29.92S
SHEBOYGAN      CLEAR     70  59  68 W7        29.91S
WEST BEND      PTCLDY    73  55  53 W8        29.94S
JUNEAU         CLEAR     72  58  62 SW9       29.95S
$$

LSZ147-162-300200-
LAKE SUPERIOR

STATION/POSITION TIME  TEMP    WIND        PRES    WAVE
                       AIR SEA DIR/SP/G            HT/PER
                 (UTC) (F)     (DEG/KT/KT) (MB)    (FT/S)
W MID LAKE BUOY  2350   45 38  260/ 10/ 12 1010.4R   2/ 4
DEVILS ISLAND    0000   52     250/ 16/ 18 1011.6R
SAXON HARBOR     0040   63     320/  6/  8 1011.9R
$$

LMZ867-665-643>646-300200-
LAKE MICHIGAN

STATION/POSITION TIME  TEMP    WIND        PRES    WAVE
                       AIR SEA DIR/SP/G            HT/PER
                 (UTC) (F)     (DEG/KT/KT) (MB)    (FT/S)
CHAMBERS ISLAND  0000   68     210/  6/ 12 1010.8
N MID LAKE BUOY  2250   52 48  190/ 16/ 17 1009.8F   3/ 5
NORTHPORT PIER   0000   69     250/  4/ 10 1010.5R
KEWAUNEE LAKESHO 0000   74                 1011.2R
SHEBOYGAN LAKESH 0000   77     260/ 11/ 13 1012.8S
PORT WASHINGTON  0000   79     270/  8/ 15 1013.5S
S MID LAKE BUOY  2250   58 51  190/ 10/ 12 1014.0F   1
KENOSHA   LAKESH 0000   79     280/  9/ 17 1013.9S
$$

TC  - TEMPERATURE IN CELSIUS
VSB - VISIBILITY IN STATUTE MILES
WCI - WIND CHILL INDEX
HX  - HEAT INDEX





USA.gov is the U.S. government's official web portal to all federal, state and local government web resources and services.